This is the latest recevied weather packets stored in our database for station/object IZ1DME-3. If no packets are shown the sender has not sent any weather packets the latest 10 day(s).
| Time | Temp. | Humidity | Pressure | Rain* | Wind** | Luminosity | Snow |
|---|---|---|---|---|---|---|---|
| 1788162161 | 72° F | 61% | 763.5 mmHg | - | - | - | - |
| 1788160662 | 70° F | 64% | 763.6 mmHg | - | - | - | - |
| 1788159161 | 68° F | 65% | 763.6 mmHg | - | - | - | - |
| 1788157661 | 67° F | 68% | 763.5 mmHg | - | - | - | - |
| 1788156161 | 65° F | 69% | 763.6 mmHg | - | - | - | - |
| 1788154661 | 66° F | 67% | 763.3 mmHg | - | - | - | - |
| 1788153162 | 66° F | 66% | 763.3 mmHg | - | - | - | - |
| 1788151661 | 65° F | 71% | 763.3 mmHg | - | - | - | - |
| 1788150161 | 65° F | 72% | 763.4 mmHg | - | - | - | - |
| 1788148661 | 66° F | 70% | 763.3 mmHg | - | - | - | - |
| 1788147161 | 67° F | 67% | 763 mmHg | - | - | - | - |
| 1788145661 | 67° F | 71% | 763.1 mmHg | - | - | - | - |
| 1788144162 | 68° F | 70% | 763 mmHg | - | - | - | - |
| 1788142661 | 68° F | 71% | 763 mmHg | - | - | - | - |
| 1788141161 | 67° F | 73% | 763.2 mmHg | - | - | - | - |
| 1788139661 | 68° F | 71% | 763.3 mmHg | - | - | - | - |
| 1788138161 | 69° F | 73% | 763 mmHg | - | - | - | - |
| 1788136661 | 69° F | 71% | 763.2 mmHg | - | - | - | - |
| 1788135162 | 70° F | 69% | 763.3 mmHg | - | - | - | - |
| 1788133661 | 71° F | 65% | 763.1 mmHg | - | - | - | - |
| 1788132161 | 71° F | 65% | 763.1 mmHg | - | - | - | - |
| 1788130662 | 72° F | 65% | 763.2 mmHg | - | - | - | - |
| 1788129161 | 71° F | 67% | 763.2 mmHg | - | - | - | - |
| 1788127661 | 71° F | 67% | 763.3 mmHg | - | - | - | - |
| 1788126161 | 71° F | 67% | 763.1 mmHg | - | - | - | - |
* Rain since midnight (hover to see other rain measurements)
** Current wind speed in m/s (hover to see current wind gust speed)